This is the latest recevied weather packets stored in our database for station/object N4DBJ. If no packets are shown the sender has not sent any weather packets the latest 1 day(s).
| Time | Temp. | Humidity | Pressure | Rain* | Wind** | Luminosity | Snow |
|---|---|---|---|---|---|---|---|
| 1778005804 | 21.67° C | 58% | 1007.3 hPa | 0 mm | 3.13 m/s, 150° | 241 W/m² | - |
| 1778005500 | 21.67° C | 61% | 1007.4 hPa | 0 mm | 1.34 m/s, 205° | 206 W/m² | - |
| 1778005196 | 21.67° C | 60% | 1007.5 hPa | 0 mm | 2.24 m/s, 197° | 212 W/m² | - |
| 1778004894 | 21.11° C | 61% | 1007.6 hPa | 0 mm | 1.34 m/s, 87° | 320 W/m² | - |
| 1778004590 | 21.11° C | 68% | 1007.6 hPa | 0 mm | 1.34 m/s, 251° | 267 W/m² | - |
| 1778004286 | 21.11° C | 63% | 1007.5 hPa | 0 mm | 1.34 m/s, 281° | 176 W/m² | - |
| 1778003983 | 21.11° C | 65% | 1007.8 hPa | 0 mm | 1.79 m/s, 147° | 198 W/m² | - |
| 1778003679 | 21.11° C | 66% | 1007.5 hPa | 0 mm | 1.79 m/s, 172° | 293 W/m² | - |
| 1778003376 | 20.56° C | 71% | 1007.4 hPa | 0 mm | 0.89 m/s, 260° | 270 W/m² | - |
| 1778003074 | 20.56° C | 70% | 1007.6 hPa | 0 mm | 1.34 m/s, 183° | 233 W/m² | - |
| 1778002770 | 20° C | 68% | 1007.6 hPa | 0 mm | 1.79 m/s, 169° | 140 W/m² | - |
| 1778002466 | 20.56° C | 69% | 1007.5 hPa | 0 mm | 1.79 m/s, 184° | 144 W/m² | - |
| 1778002163 | 20.56° C | 71% | 1007.8 hPa | 0 mm | 1.79 m/s, 268° | 154 W/m² | - |
| 1778001862 | 20° C | 72% | 1008.2 hPa | 0 mm | 1.34 m/s, 134° | 162 W/m² | - |
| 1778001561 | 20.56° C | 70% | 1008 hPa | 0 mm | 0.45 m/s, 117° | 164 W/m² | - |
| 1778001258 | 20.56° C | 71% | 1007.9 hPa | 0 mm | 0.89 m/s, 200° | 244 W/m² | - |
| 1778000954 | 20.56° C | 70% | 1008.1 hPa | 0 mm | 0.89 m/s, 296° | 229 W/m² | - |
| 1778000651 | 20.56° C | 70% | 1008.2 hPa | 0 mm | 1.34 m/s, 273° | 346 W/m² | - |
| 1778000346 | 20.56° C | 72% | 1008.4 hPa | 0 mm | 0.89 m/s, 46° | 308 W/m² | - |
| 1778000042 | 20° C | 71% | 1008.4 hPa | 0 mm | 2.24 m/s, 316° | 235 W/m² | - |
| 1777999738 | 20° C | 70% | 1008.6 hPa | 0 mm | 1.79 m/s, 173° | 209 W/m² | - |
| 1777999435 | 20° C | 69% | 1008.7 hPa | 0 mm | 3.13 m/s, 139° | 212 W/m² | - |
| 1777999133 | 20° C | 72% | 1008.9 hPa | 0 mm | 1.34 m/s, 178° | 180 W/m² | - |
| 1777998832 | 20° C | 71% | 1009.2 hPa | 0 mm | 0.89 m/s, 270° | 175 W/m² | - |
| 1777998530 | 20° C | 70% | 1009.2 hPa | 0 mm | 0 m/s | 158 W/m² | - |
* Rain latest hour (hover to see other rain measurements)
** Current wind speed in m/s (hover to see current wind gust speed)